COSMOS 1275 DEB, 39948

Orbit data source: Space-Track

COSMOS 1275 DEB, 39948 is space debris in LEO originally from a launch on Thu, 04 Jun 1981 UTC launched from the Plesetsk Missile And Space Complex (PKMTR). Debris objects in space refer to the collection of defunct objects orbiting the Earth. Examples of debris include non-operational satellites, rocket bodies, and fragments generated from explosions, collisions, or faulty payload assembly.

Loading next visibility...
Identifier
39948, 1981-053NJ
Orbit
LEO
Country
Flag of CISCIS
Related business
Manufacturer
Unknown
Mission
Spacecraft
Bus & Motor
Unknown
Mass
Unknown
Launch date (UTC)
1981-06-04 (45 years ago)
Launch vehicle
Unknown
Launch site
Plesetsk Missile And Space Complex (PKMTR)
Object type
Payload
Rocket body
Debris
Shape & HBR
Unknown shape, 0.1 m
Radar Cross Section
Small (<0.1 m²)

Expand to show TLE details & history
Last TLE update: 6 days ago

TLE from 6 days ago
0 COSMOS 1275 DEB
1 39948U 81053NJ  26062.19298910  .00001438  00000-0  17692-2 0  9998
2 39948  83.0661   2.1472 0192299 325.9020  99.8750 13.57340555579803
Epoch: 2026-03-03T04:37Z
TLE epoch observation values (Epoch: 2026-03-03T04:37:54.258Z)
Latitude
67.0067°
Longitude
148.26203°
Altitude
1,084.104 km
Speed
7.303 km/s
True Right ascension
01h 14m 51s
True Declination
66° 53' 17"
Sunlit
Object was in daylight at epoch
Visualization orbit readout
Latitude
Unknown
Longitude
Unknown
Altitude
Unknown
Speed
Unknown
Apparent Right ascension
Unknown
Apparent Declination
Unknown
Sunlit
N/A
Visualization observer readout
Local Sidereal Time
16:19:29
Azimuth
Unknown
Elevation
Unknown
Doppler factor
Unknown
Orbital elements
Apogee altitude
1,185.239 km
Perigee altitude
899.841 km
Semi-major axis
7,420.677 km
Eccentricity
0.01923
Inclination
83.0661°
RAAN
2.1472°
Arg. of periapsis
325.902°
True anomaly
102.03651°
Mean anomaly
99.875°
Eccentric anomaly
100.95671°
Mean motion
3.3953 °/min
Orbital period
106.03 mins
BSTAR
0.0017692
Loading maneuver chart data...
Computing Atmospheric mass density...
Loading historical data...
Loading historical data...
Loading historical data...
Loading historical data...
Loading historical data...
Loading historical data...
Loading historical data...

Documentation

Showing up to 5 results
|